TimeEST,TemperatureF,Dew PointF,Humidity,Sea Level PressureIn,VisibilityMPH,Wind Direction,Wind SpeedMPH,Gust SpeedMPH,PrecipitationIn,Events,Conditions,WindDirDegrees,DateUTC
12:51 AM,27.1,21.0,78,30.53,10.0,North,-9999.0,-,N/A,,Clear,0,2013-01-11 05:51:00
1:51 AM,25.2,20.1,81,30.54,10.0,North,-9999.0,-,N/A,,Clear,0,2013-01-11 06:51:00
2:51 AM,24.1,20.1,85,30.52,10.0,North,-9999.0,-,N/A,,Clear,0,2013-01-11 07:51:00
3:51 AM,22.1,18.1,85,30.51,10.0,North,-9999.0,-,N/A,,Clear,0,2013-01-11 08:51:00
4:51 AM,22.1,18.1,85,30.50,10.0,North,-9999.0,-,N/A,,Clear,0,2013-01-11 09:51:00
5:51 AM,23.0,19.0,85,30.52,10.0,North,-9999.0,-,N/A,,Clear,0,2013-01-11 10:51:00
6:51 AM,23.0,19.0,85,30.52,10.0,North,-9999.0,-,N/A,,Clear,0,2013-01-11 11:51:00
7:51 AM,22.1,18.1,85,30.53,10.0,North,-9999.0,-,N/A,,Clear,0,2013-01-11 12:51:00
8:51 AM,25.2,21.0,84,30.52,10.0,North,-9999.0,-,N/A,,Clear,0,2013-01-11 13:51:00
9:51 AM,31.1,23.0,72,30.52,10.0,Calm,Calm,-,N/A,,Clear,0,2013-01-11 14:51:00
11:51 AM,34.9,25.2,68,30.44,10.0,North,-9999.0,-,N/A,,Clear,0,2013-01-11 16:51:00
12:51 PM,36.9,25.2,63,30.42,10.0,Calm,Calm,-,N/A,,Clear,0,2013-01-11 17:51:00
1:51 PM,37.9,25.2,60,30.40,10.0,North,-9999.0,-,N/A,,Clear,0,2013-01-11 18:51:00
2:51 PM,36.9,25.2,63,30.38,10.0,North,-9999.0,-,N/A,,Clear,0,2013-01-11 19:51:00
3:51 PM,36.0,26.1,67,30.35,10.0,North,-9999.0,-,N/A,,Mostly Cloudy,0,2013-01-11 20:51:00
4:51 PM,34.9,27.1,73,30.34,10.0,Calm,Calm,-,N/A,,Overcast,0,2013-01-11 21:51:00
5:51 PM,34.0,30.0,85,30.32,10.0,Calm,Calm,-,0.00,Rain,Light Rain,0,2013-01-11 22:51:00
6:07 PM,33.8,30.2,87,30.30,10.0,North,-9999.0,-,0.00,Rain,Light Rain,0,2013-01-11 23:07:00
6:51 PM,32.9,32.0,96,30.30,8.0,Calm,Calm,-,0.01,Rain,Light Rain,0,2013-01-11 23:51:00
7:51 PM,32.9,32.0,96,30.30,3.0,Calm,Calm,-,0.00,Rain,Light Rain,0,2013-01-12 00:51:00
8:51 PM,32.9,32.0,96,30.27,3.0,Calm,Calm,-,0.05,Rain,Light Rain,0,2013-01-12 01:51:00
8:58 PM,33.8,32.0,93,30.25,2.0,North,-9999.0,-,0.00,Rain,Light Rain,0,2013-01-12 01:58:00
9:22 PM,33.8,32.0,93,30.25,1.2,North,-9999.0,-,0.01,Rain,Light Rain,0,2013-01-12 02:22:00
9:33 PM,33.8,32.0,93,30.25,2.0,North,-9999.0,-,0.02,Rain,Light Rain,0,2013-01-12 02:33:00
9:41 PM,33.8,32.0,93,30.25,3.0,North,-9999.0,-,0.02,Rain,Light Rain,0,2013-01-12 02:41:00
9:51 PM,32.9,32.0,96,30.26,3.0,North,-9999.0,-,0.02,Rain,Light Rain,0,2013-01-12 02:51:00
9:58 PM,33.8,32.0,93,30.24,1.8,North,-9999.0,-,0.01,Rain,Light Rain,0,2013-01-12 02:58:00
10:19 PM,33.8,32.0,93,30.23,2.0,North,-9999.0,-,0.01,Rain,Light Rain,0,2013-01-12 03:19:00
10:34 PM,33.8,32.0,93,30.24,1.5,North,-9999.0,-,0.02,Rain,Light Rain,0,2013-01-12 03:34:00
10:51 PM,32.9,32.0,96,30.26,1.5,North,-9999.0,-,0.04,Rain,Light Rain,0,2013-01-12 03:51:00
11:12 PM,33.8,32.0,93,30.25,2.5,North,-9999.0,-,0.02,Rain,Light Rain,0,2013-01-12 04:12:00
11:36 PM,33.8,32.0,93,30.24,1.5,North,-9999.0,-,0.03,Rain,Light Rain,0,2013-01-12 04:36:00
11:51 PM,32.9,32.0,96,30.25,1.8,North,-9999.0,-,0.04,Rain,Light Rain,0,2013-01-12 04:51:00